Regional Weather Roundup
Issued by NWS

Home | Current Version | Previous Version | Graphics & Text | Print | Product List | Glossary On
Versions: 1 2 3 4 5 6 7 8 9 10 11 12 13 14 15 16 17 18 19 20 21 22 23 24 25 26 27 28 29 30 31 32 33 34 35 36 37 38 39 40 41 42 43 44 45 46 47 48 49 50
000
ASUS43 KFSD 030210
RWRSD

WEATHER ROUNDUP FOR SOUTH DAKOTA
NATIONAL WEATHER SERVICE SIOUX FALLS SD
900 PM CDT TUE SEP 02 2014

NOTE: "FAIR" INDICATES FEW OR NO CLOUDS BELOW 12,000 FEET WITH NO
SIGNIFICANT WEATHER AND/OR OBSTRUCTIONS TO VISIBILITY.


SDZ001>005-009-010-012>017-030300-
NORTHWEST AND NORTH CENTRAL SOUTH DAKOTA

CITY           SKY/WX    TMP DP  RH WIND       PRES   REMARKS
BUFFALO          N/A     65  48  54 NE12      29.73S
FAITH            N/A     70  49  47 N5        29.79R
MOBRIDGE       MOCLDY    62  58  86 CALM      29.74R
$$

SDZ012>016-024>037-041>051-057-063-072>074-030300-
SOUTHWEST AND SOUTH CENTRAL SOUTH DAKOTA

CITY           SKY/WX    TMP DP  RH WIND       PRES   REMARKS
RAPID CTY ARPT CLEAR     64  47  53 E6        29.80S
PIERRE         CLEAR     70  51  51 SE7       29.75S
CUSTER         CLEAR     65  34  31 SE6       29.94S
ELLSWORTH AFB  CLEAR     68  48  48 SE10      29.80F
PHILIP         PTCLDY    69  47  45 SW5       29.77S
PINE RIDGE     CLEAR     63  54  72 E6        29.83S
WINNER         FAIR      72  58  61 SE12      29.79F
$$

SDZ004>011-016>023-039-040-030300-
NORTHEAST SOUTH DAKOTA

CITY           SKY/WX    TMP DP  RH WIND       PRES   REMARKS
ABERDEEN       MOCLDY    64  56  75 S9        29.76S
WATERTOWN      MOCLDY    65  55  70 S9        29.84S
SISSETON         N/A     66  56  70 SW10      29.78S
$$

SDZ017-020-022-023-036>040-048>070-030300-
SOUTHEAST SOUTH DAKOTA

CITY           SKY/WX    TMP DP  RH WIND       PRES   REMARKS
SIOUX FALLS    MOCLDY    66  57  72 S7        29.89R
HURON          MOCLDY    69  56  62 SE8       29.80F
CHAMBERLAIN    CLEAR     66  57  72 SE8       29.80S
MITCHELL       PTCLDY    68  59  73 SE9       29.83F
YANKTON        CLEAR     68  61  77 SE8       29.88S
$$

ABBREVIATIONS USED IN REMARKS
   TC - TEMPERATURE IN CELSIUS
  WCI - WIND CHILL INDEX
   HX - HEAT INDEX
  VSB - VISIBILITY



USA.gov is the U.S. government's official web portal to all federal, state and local government web resources and services.